Torna al catalogo

STARLINK-6183

AttivoComunicazioniVLEO
NORAD 56905·PAYLOAD·🇺🇸 United States

Lanciato Jun 12, 2023 da Cape Canaveral Space Force Station

Loading…

Prossimi Passaggi (prossime 24 ore)

TLE

AggiornatoSource: CelesTrak SupGP

Epoca: Sep 15, 2026, 01:56 UTC

1 56905C 23083AF  26258.08104167 -.00004698  00000+0 -17021-3 0  2581
2 56905  43.0005  80.7341 0001653 266.7228 231.3027 15.27570863    13

Traccia STARLINK-6183 in tempo reale con AllMySat

Download on the App Store